Location: Rounton
(54.4000°N, 1.3500°W)
Time: 02:45:59
(UTC+00:00)

Envisat - Pass Details

Date: 23 October 2021
Orbit: 764 x 766 km, 98.2° (Epoch: 28 November)

Event Time Altitude Azimuth Distance (km) Brightness Sun altitude
Rises 18:55:04 0° 221° (SW) 3,227 7.0 -10.2°
Reaches altitude 10° 18:58:41 10° 248° (WSW) 2,307 6.8 -10.8°
Maximum altitude 19:01:05 13° 277° (W) 2,087 6.6 -11.1°
Drops below altitude 10° 19:03:30 10° 306° (NW) 2,315 6.3 -11.5°
Sets 19:07:09 0° 333° (NNW) 3,247 6.6 -12.0°
